Preview of NWS' New Version of Forecast
This preview is not operational and should not be used for support decisions.

Regional Weather Roundup (RWR)

Issued by National Weather Service (NWS)

                            
000
ASUS43 KLSX 200907
RWRMO 

WEATHER SUMMARY FOR MISSOURI
NATIONAL WEATHER SERVICE SPRINGFIELD MO
400 AM CDT THU JUN 20 2019

NOTE: "FAIR" INDICATES FEW OR NO CLOUDS BELOW 12,000 FEET WITH NO
       SIGNIFICANT WEATHER AND/OR OBSTRUCTIONS TO VISIBILITY.
       CURRENT SKY AND/OR WEATHER CONDITIONS ARE NOT AVAILABLE FOR
       CHILLICOTHE AND FARMINGTON.

MOZ001>031-035>038-043-044-053-054-201000-
...NORTHERN AND WESTERN MISSOURI...
  
CITY           SKY/WX    TMP DP  RH WIND       PRES   REMARKS
KANSAS CTY INT CLEAR     61  60  97 SE5       29.74R                  
KANSAS C DTWN  CLEAR     68  62  81 SE3       29.73S                  
LEE'S SUMMIT   CLEAR     63  60  90 CALM      29.74S                  
ST JOSEPH      CLEAR     63  61  93 SE5       29.73R                  
CHILLICOTHE      N/A     63  62  97 CALM      29.75R                  
KIRKSVILLE     MOCLDY    63  63 100 NW6       29.74R FOG              
     
$$
MOZ066>068-077>081-088>096-101>105-201000-
...SOUTHWEST MISSOURI...
  
CITY           SKY/WX    TMP DP  RH WIND       PRES   REMARKS
SPRINGFIELD    CLEAR     65  62  90 CALM      29.73S                  
JOPLIN         CLEAR     63  63 100 CALM      29.74S FOG              
BRANSON        CLEAR     66  66 100 CALM      29.76S                  
               
$$
MOZ032>034-039>042-045>050-055>058-069>072-201000-
...CENTRAL MISSOURI...  
  
CITY           SKY/WX    TMP DP  RH WIND       PRES   REMARKS
COLUMBIA       CLOUDY    66  63  90 NW5       29.71S                  
ROLLA          CLOUDY    65  61  87 N5        29.72S                  
SEDALIA        CLEAR     60  60 100 W5        29.73F FOG              
WHITEMAN AFB   CLEAR     61  61 100 CALM      29.69S                  
WARRENSBURG    CLEAR     61  59  94 W3        29.73S FOG              
OSAGE BEACH    CLEAR     63  62  97 CALM      29.73S                  
               
$$
MOZ051-052-059>065-201000-
...EAST CENTRAL MISSOURI...
  
CITY           SKY/WX    TMP DP  RH WIND       PRES   REMARKS
ST LOUIS INTL  CLOUDY    68  61  78 NW6       29.67R                  
SPIRIT OF STL  CLOUDY    68  62  81 W7        29.67R                  
ST CHARLES       N/A    N/A N/A N/A MISG      29.66R                  
                   
$$
MOZ072>076-082>087-097>100-106>115-201000-
...SOUTH CENTRAL AND SOUTHEAST MISSOURI...
  
CITY           SKY/WX    TMP DP  RH WIND       PRES   REMARKS
CAPE GIRARDEAU FAIR      71  67  87 W9        29.66R                  
FARMINGTON     CLOUDY    67  65  93 W6        29.70R                  
POPLAR BLUFF   CLOUDY    71  70  96 CALM      29.68R                  
WEST PLAINS    CLEAR     66  65  96 CALM      29.75R                  
                                       
$$